When you browse on this site, cookies collect data to enhance your experience and personalize the content and advertising you see.
Visit our Privacy Policy to learn more. By continuing to use the site, you agree to this use of cookies and data.
  • In Portugal
  • List of Countries
  • For 7 days
  • Water Temperature
  • Satellite Maps
  • Weather Map
  • Weather Widgets
  • user-avatar
    Login

    Hourly Weather Babino

    Today, 18 February, Monday

    Time Temperature Precipitation Wind Pressure Humidity
    00:00 -4°C° 0 mm 4 mps 750 mmHg 83%
    01:00 -4°C° 0 mm 3 mps 751 mmHg 84%
    02:00 -4°C° 0 mm 2 mps 751 mmHg 91%
    03:00 -5°C° 0 mm 2 mps 752 mmHg 91%
    04:00 -5°C° 0 mm 2 mps 752 mmHg 92%
    05:00 -5°C° 0 mm 2 mps 753 mmHg 93%
    06:00 -5°C° 0 mm 2 mps 753 mmHg 93%
    07:00 -6°C° 0 mm 2 mps 754 mmHg 93%
    08:00 -6°C° 0 mm 2 mps 754 mmHg 92%
    09:00 -5°C° 0 mm 2 mps 754 mmHg 87%
    10:00 -4°C° 0 mm 2 mps 755 mmHg 81%
    11:00 -3°C° 0 mm 2 mps 755 mmHg 76%
    12:00 -2°C° 0 mm 2 mps 755 mmHg 72%
    13:00 0°C° 0 mm 1 mps 755 mmHg 68%
    14:00 +1°C° 0 mm 1 mps 755 mmHg 65%
    15:00 0°C° 0 mm 1 mps 755 mmHg 68%
    16:00 -1°C° 0 mm 1 mps 755 mmHg 71%
    17:00 -3°C° 0 mm 0 mps 755 mmHg 75%
    18:00 -2°C° 0 mm 1 mps 755 mmHg 77%
    19:00 -2°C° 0 mm 1 mps 755 mmHg 79%
    20:00 -5°C° 0 mm 2 mps 754 mmHg 81%
    21:00 -5°C° 0 mm 2 mps 754 mmHg 80%
    22:00 -4°C° 0 mm 2 mps 754 mmHg 80%
    23:00 -5°C° 0 mm 3 mps 754 mmHg 79%

    Tomorrow, 19 February, Tuesday

    Time Temperature Precipitation Wind Pressure Humidity
    00:00 -5°C° 0 mm 3 mps 754 mmHg 78%
    01:00 -5°C° 0 mm 4 mps 753 mmHg 76%
    02:00 -5°C° 0 mm 4 mps 753 mmHg 75%
    03:00 -5°C° 0 mm 4 mps 752 mmHg 74%
    04:00 -5°C° 0 mm 4 mps 751 mmHg 74%
    05:00 -5°C° 0 mm 4 mps 751 mmHg 73%
    06:00 -5°C° 0 mm 4 mps 750 mmHg 74%
    07:00 -5°C° 0 mm 5 mps 750 mmHg 75%
    08:00 -5°C° 0 mm 5 mps 749 mmHg 77%
    09:00 -4°C° 0 mm 5 mps 749 mmHg 76%
    10:00 -2°C° 0 mm 5 mps 748 mmHg 76%
    11:00 -1°C° 0 mm 5 mps 748 mmHg 76%
    12:00 0°C° 0 mm 5 mps 747 mmHg 76%
    13:00 0°C° 0 mm 5 mps 747 mmHg 77%
    14:00 +1°C° 0 mm 5 mps 746 mmHg 77%
    15:00 0°C° 0 mm 5 mps 745 mmHg 80%
    16:00 0°C° 0 mm 5 mps 744 mmHg 83%
    17:00 0°C° 0 mm 5 mps 744 mmHg 86%
    18:00 0°C° 0 mm 5 mps 743 mmHg 86%
    19:00 0°C° 0 mm 5 mps 743 mmHg 87%
    20:00 0°C° 0 mm 5 mps 742 mmHg 88%
    21:00 0°C° 0 mm 5 mps 741 mmHg 88%
    22:00 0°C° 0 mm 5 mps 741 mmHg 88%
    23:00 0°C° 0 mm 5 mps 740 mmHg 88%

    Day after tomorrow, 20 February, Wednesday

    Time Temperature Precipitation Wind Pressure Humidity
    00:00 0°C° 0.1 mm 5 mps 740 mmHg 88%
    01:00 0°C° 0.1 mm 5 mps 739 mmHg 88%
    02:00 0°C° 0.1 mm 5 mps 739 mmHg 88%
    03:00 0°C° 0.1 mm 4 mps 739 mmHg 89%
    04:00 0°C° 0.1 mm 4 mps 739 mmHg 90%
    05:00 0°C° 0.1 mm 4 mps 738 mmHg 91%
    06:00 0°C° 0 mm 4 mps 739 mmHg 92%
    07:00 0°C° 0 mm 4 mps 739 mmHg 92%
    08:00 0°C° 0 mm 4 mps 739 mmHg 92%
    09:00 +1°C° 0.1 mm 4 mps 739 mmHg 89%
    10:00 +1°C° 0.1 mm 4 mps 739 mmHg 85%
    11:00 +1°C° 0.1 mm 5 mps 739 mmHg 81%
    12:00 +1°C° 0.1 mm 5 mps 739 mmHg 79%
    13:00 +1°C° 0.1 mm 5 mps 739 mmHg 78%
    14:00 +1°C° 0.1 mm 5 mps 739 mmHg 76%
    15:00 +1°C° 0 mm 5 mps 739 mmHg 78%
    16:00 +1°C° 0 mm 5 mps 738 mmHg 81%
    17:00 0°C° 0 mm 5 mps 738 mmHg 84%
    18:00 0°C° 0.1 mm 5 mps 738 mmHg 84%
    19:00 0°C° 0.1 mm 5 mps 738 mmHg 84%
    20:00 0°C° 0.1 mm 5 mps 738 mmHg 85%
    21:00 -1°C° 0.1 mm 5 mps 739 mmHg 81%
    22:00 -2°C° 0.1 mm 5 mps 739 mmHg 77%
    23:00 -4°C° 0.1 mm 5 mps 739 mmHg 74%

    21 February, Thursday

    Time Temperature Precipitation Wind Pressure Humidity
    00:00 -4°C° 0 mm 5 mps 740 mmHg 75%
    01:00 -4°C° 0 mm 5 mps 741 mmHg 76%
    02:00 -4°C° 0 mm 5 mps 741 mmHg 77%
    03:00 -4°C° 0.1 mm 5 mps 742 mmHg 76%
    04:00 -5°C° 0.1 mm 5 mps 742 mmHg 75%
    05:00 -5°C° 0.1 mm 5 mps 742 mmHg 75%
    06:00 -5°C° 0.1 mm 5 mps 743 mmHg 72%
    07:00 -6°C° 0.1 mm 6 mps 743 mmHg 70%
    08:00 -6°C° 0.1 mm 6 mps 744 mmHg 67%
    09:00 -6°C° 0 mm 6 mps 745 mmHg 65%
    10:00 -6°C° 0 mm 6 mps 745 mmHg 63%
    11:00 -8°C° 0 mm 6 mps 746 mmHg 62%
    12:00 -8°C° 0 mm 6 mps 747 mmHg 61%
    13:00 -6°C° 0 mm 5 mps 747 mmHg 61%
    14:00 -6°C° 0 mm 5 mps 748 mmHg 60%
    15:00 -7°C° 0 mm 5 mps 749 mmHg 61%
    16:00 -7°C° 0 mm 5 mps 749 mmHg 62%
    17:00 -8°C° 0 mm 4 mps 750 mmHg 63%
    18:00 -8°C° 0 mm 5 mps 751 mmHg 63%
    19:00 -8°C° 0 mm 5 mps 752 mmHg 63%
    20:00 -8°C° 0 mm 5 mps 752 mmHg 64%
    21:00 -10°C° 0 mm 5 mps 753 mmHg 64%
    22:00 -11°C° 0 mm 5 mps 754 mmHg 64%
    23:00 -11°C° 0 mm 5 mps 754 mmHg 64%

    22 February, Friday

    Time Temperature Precipitation Wind Pressure Humidity
    00:00 -10°C° 0 mm 4 mps 755 mmHg 65%
    01:00 -11°C° 0 mm 4 mps 756 mmHg 65%
    02:00 -11°C° 0 mm 4 mps 757 mmHg 65%
    03:00 -11°C° 0 mm 4 mps 758 mmHg 67%
    04:00 -11°C° 0 mm 4 mps 758 mmHg 69%
    05:00 -10°C° 0 mm 3 mps 759 mmHg 71%
    06:00 -11°C° 0 mm 4 mps 760 mmHg 70%
    07:00 -11°C° 0 mm 4 mps 760 mmHg 70%
    08:00 -11°C° 0 mm 4 mps 761 mmHg 70%
    09:00 -10°C° 0 mm 4 mps 762 mmHg 65%
    10:00 -9°C° 0 mm 4 mps 762 mmHg 61%
    11:00 -8°C° 0 mm 4 mps 762 mmHg 56%
    12:00 -7°C° 0 mm 4 mps 763 mmHg 51%
    13:00 -5°C° 0 mm 4 mps 763 mmHg 46%
    14:00 -5°C° 0 mm 5 mps 763 mmHg 42%
    15:00 -5°C° 0 mm 4 mps 763 mmHg 45%
    16:00 -5°C° 0 mm 4 mps 763 mmHg 48%
    17:00 -6°C° 0 mm 3 mps 764 mmHg 52%
    18:00 -6°C° 0 mm 3 mps 764 mmHg 56%
    19:00 -7°C° 0 mm 3 mps 765 mmHg 59%
    20:00 -7°C° 0 mm 3 mps 765 mmHg 63%
    21:00 -8°C° 0 mm 3 mps 765 mmHg 66%
    22:00 -7°C° 0 mm 2 mps 765 mmHg 69%
    23:00 -8°C° 0 mm 2 mps 765 mmHg 72%

    23 February, Saturday

    Time Temperature Precipitation Wind Pressure Humidity
    00:00 -8°C° 0 mm 2 mps 765 mmHg 74%
    01:00 -7°C° 0 mm 1 mps 764 mmHg 76%
    02:00 -7°C° 0 mm 1 mps 764 mmHg 78%
    03:00 -7°C° 0 mm 1 mps 763 mmHg 77%
    04:00 -7°C° 0 mm 1 mps 763 mmHg 75%
    05:00 -8°C° 0 mm 2 mps 762 mmHg 74%
    06:00 -7°C° 0 mm 2 mps 761 mmHg 72%
    07:00 -7°C° 0 mm 2 mps 761 mmHg 70%
    08:00 -6°C° 0 mm 2 mps 760 mmHg 69%
    09:00 -7°C° 0.3 mm 3 mps 759 mmHg 74%
    10:00 -7°C° 0.3 mm 3 mps 758 mmHg 80%
    11:00 -7°C° 0.3 mm 3 mps 757 mmHg 86%
    12:00 -6°C° 0.3 mm 3 mps 757 mmHg 86%
    13:00 -6°C° 0.3 mm 3 mps 756 mmHg 85%
    14:00 -6°C° 0.3 mm 3 mps 755 mmHg 85%
    15:00 -6°C° 0.4 mm 3 mps 755 mmHg 87%
    16:00 -5°C° 0.4 mm 3 mps 754 mmHg 89%
    17:00 -4°C° 0.4 mm 2 mps 754 mmHg 91%
    18:00 -4°C° 0 mm 2 mps 754 mmHg 92%
    19:00 -4°C° 0 mm 2 mps 754 mmHg 93%
    20:00 -4°C° 0 mm 2 mps 754 mmHg 94%
    21:00 -4°C° 0 mm 2 mps 754 mmHg 95%
    22:00 -2°C° 0 mm 1 mps 754 mmHg 95%
    23:00 -2°C° 0 mm 1 mps 754 mmHg 96%
    Show more